Flag for Australia Weather past 2 weeks in Currie, Tasmania, Australia

Now
51 °F

Cool.


Feels Like: 48 °F
Forecast: 54 / 55 °F
Wind: 7 mph from East

Location: King Island Airport

Current Time: Jul 23, 2014 at 11:19:29 AM

Latest Report: Jul 23, 2014 at 10:00 AM


Visibility: N/A

Pressure: 30.23 "Hg

Humidity: 93%

Dew point: 49 °F

Location of CurrieLocation

Historic Weather in Currie — Graph

°F

Currie temperature yesterday

Maximum temperature yesterday: 57 °F (at 12:00 PM)
Minimum temperature yesterday: 40 °F (at 7:00 AM)
Average temperature yesterday: 47 °F

Past Weeks' High & Low Weather Summary

 TemperatureHumidityPressure
High59 °F (Jul 8, 3:00 PM)100% (Jul 21, 9:00 AM)30.50 "Hg (Jul 21, 9:00 AM)
Low39 °F (Jul 21, 3:00 AM)55% (Jul 12, 11:00 AM)29.32 "Hg (Jul 9, 5:00 AM)
Average50 °F80%30.04 "Hg
* Reported Jul 8 2:00 AM — Jul 23 2:00 AM, Currie, Weather by CustomWeather, © 2014

Note: Actual official high and low records may vary slightly from our data, if they occured in-between our weather recording intervals... More about our weather records

Advertising

Currie weather history for previous 24 hours

 ConditionsComfort  
Time TempWeatherWind HumidityBarometerVisibility
2:00 AM
Jul 23
43 °FQuite cool.6 mph96%30.25 "HgN/A
1:00 AM41 °FQuite cool.3 mph94%30.26 "HgN/A
12:00 AM41 °FQuite cool.3 mph96%30.27 "HgN/A
11:00 PM
Jul 22
40 °FChilly.6 mph94%30.27 "HgN/A
10:00 PM44 °FQuite cool.6 mph93%30.27 "HgN/A
9:00 PM44 °FPassing clouds.6 mph93%30.27 "HgN/A
8:00 PM45 °FQuite cool.5 mph91%30.27 "HgN/A
7:00 PM45 °FCool.5 mph89%30.27 "HgN/A
6:00 PM49 °FCool.3 mph84%30.26 "HgN/A
5:00 PM54 °FCool.No wind72%30.26 "HgN/A
4:00 PM55 °FCool.5 mph65%30.26 "HgN/A
3:00 PM57 °FOvercast.5 mph58%30.25 "HgN/A
2:00 PM56 °FRefreshingly cool.5 mph57%30.26 "HgN/A
1:00 PM55 °FCool.5 mph60%30.28 "HgN/A
12:00 PM57 °FScattered clouds.5 mph56%30.30 "HgN/A
11:00 AM54 °FCool.5 mph69%30.32 "HgN/A
Weather by CustomWeather, © 2014

See weather overviewHow to use our weather pages